BSAT-4A (42951 NORAD) Tracking and Keplerian Element Data

This shows tracking and keplerian element data for the satellite.

Feedback or suggestion? Click here.




ElementValue
Catalog42951
NameBSAT-4A
Epoch Orbit415
Epoch Day317.54873985
Epoch Year2018
RAAN56.0893
Inclination0.0727
Eccentricity6.27E-05
Argument of Perigee327.6286
Mean Anonmoly336.3125
Mean Motion1.00272161
Decay Rate-3.51E-06
L11 42951U 17059B 18317.54873985 -.00000351 00000-0 00000+0 0 9991
L22 42951 0.0727 56.0893 0000627 327.6286 336.3125 1.00272161 4152

Live tracking and technical data element details for BSAT-4A (NORAD 42951). BSAT-4A can be tracked NOW for your location showing map with azimuth and elevation plus other details from your city location.

Track the satellite on the map from your city or location and see movement details for azimuth, elevation, latitude, longitude, range, height, and movement on the map or in text.







IsCatalogInMostPopularTable: catalog: 42951, numindb: 128
Update: records affected: 1



GetName: 42951 BSAT-4A

Hit Count: updated at: Wed, 14 Nov 2018 12:11:48 GMT